Vertical_Velocity
0 -1 1 1 1 1 0 0 1 1 0 0 1 1 2 2 3 1 -0 -1 -1 -0 -1 -0 -1 -1 -2 -1 1 -2 -3 -2 1 -2 -1 -5 -1 1 -2 -3 -1 -1 -2
0 -1 -1 -1 -1 1 -0 -0 0 -1 -1 -1 -1 0 -0 1 0 2 3 0 -0 -0 -1 0 -1 -1 0 -0 -1 -1 0 -0 -3 -2 -0 -3 -2 -1 -0 -4 -2 -4 -1
0 1 -2 -1 1 1 0 -1 -1 0 -2 -1 -1 -1 -0 -1 2 1 1 3 1 0 -0 1 -0 -1 -0 0 -4 0 0 -1 1 -0 -1 -3 -2 -1 -1 -1 -2 -2 -6
0 -0 -2 -1 -2 -0 1 1 1 3 4 0 -2 -3 -0 -0 -2 -1 0 1 2 0 2 1 -0 1 1 -1 1 -1 -1 -0 3 0 -0 -2 -1 -1 1 0 -2 -1 -4
2 1 1 2 1 -3 1 2 -0 -1 0 3 3 1 -3 -1 -3 -0 -3 -0 1 0 -2 1 0 0 2 -1 2 0 -0 -1 -0 0 -1 -0 -1 -2 -2 -1 -3 -4 -2
-0 2 -0 1 -1 -2 -3 -1 1 1 -1 1 1 1 1 -0 -3 -3 -0 -4 -2 2 1 -2 0 0 -1 -0 -0 -0 -1 -2 0 -2 -2 -2 -0 -0 -1 -2 -3 -2 -3
1 -2 1 3 -4 -2 1 -1 1 1 -1 -1 1 -0 -3 -0 2 0 1 -3 -2 -3 0 -1 -1 0 1 1 0 1 -1 0 -3 -1 0 -3 -3 -1 -2 -3 -4 -1 -2
-0 0 -1 2 -2 2 0 0 -1 4 3 -3 -4 7 -3 -4 -4 -1 -1 1 -0 -5 -0 -1 -2 -1 1 -1 1 -0 -0 1 -1 -1 -0 0 -1 -1 -1 -1 -2 -4 -1
-1 0 -3 -1 0 6 -3 3 -2 1 0 4 4 -2 -1 -9 3 -2 2 -0 -1 -2 -2 -3 -1 -1 0 -2 -1 0 -0 -2 -3 -1 -1 1 0 -2 -2 -2 -0 -1 -1
3 2 2 -2 4 4 -2 -3 5 -2 4 -8 10 1 -5 -2 2 -7 1 1 -0 -2 -1 -2 -1 -1 -0 -3 -2 -1 2 0 -3 -1 -0 1 -1 -0 -2 -1 -0 0 -2
3 4 -0 2 2 2 1 -1 1 -0 2 4 1 3 2 0 -1 -1 -1 5 -1 3 2 1 -2 -1 1 -1 -5 -3 -1 1 -2 -1 -4 -1 2 -0 1 1 -1 3 -0
2 3 4 4 3 5 3 3 1 4 3 -3 2 -0 -5 -4 -0 1 3 5 12 -1 -0 -1 -2 1 -1 1 -3 -3 -2 -1 -2 -0 1 0 1 -0 -1 0 -1 -2 -2
-0 -2 3 0 -1 2 -2 -1 2 -6 2 1 0 -0 -3 2 2 3 -2 -5 -1 -3 2 -1 1 0 -1 -1 0 -1 -1 1 -5 0 -3 2 1 -2 -1 -2 -1 2 2
8 9 1 7 3 5 4 4 -8 1 -6 1 4 4 3 -1 -4 -14 -4 6 -4 -1 0 -0 -0 2 2 -1 5 1 -1 -1 -5 3 -3 -2 1 -1 -0 1 1 -0 -4
-1 -1 9 1 6 6 2 6 -1 -2 -8 -7 -1 -2 -1 2 -3 2 -2 -8 4 -1 -6 7 0 3 2 2 4 1 1 -0 -3 -1 -1 -3 -1 -1 -2 1 -2 1 3
4 7 1 3 2 1 3 -1 -3 4 -0 4 -4 -3 -1 6 -4 2 6 -0 5 -1 -3 5 5 -9 12 4 4 2 3 1 -3 -2 -3 -5 -4 -2 0 -4 -3 -1 1
1 4 13 0 -2 -0 -3 -3 2 5 2 -1 8 -3 -1 1 3 -1 6 -1 4 -3 5 8 -13 -4 6 -11 -1 7 -0 -2 -0 -2 -3 -8 -4 -2 -4 -0 -2 -1 -1
-3 3 10 15 11 -0 7 3 2 -1 1 3 5 -2 2 -1 -2 3 -4 7 -0 -7 20 2 -2 7 5 -9 0 -12 2 3 3 0 -1 -1 -2 -3 2 -0 0 -0 1
2 -1 -1 -2 7 7 1 2 0 0 -4 -0 1 -2 2 -0 -3 -1 9 -2 10 -23 7 16 -4 7 -4 3 -3 9 3 2 -8 7 -3 1 -4 -1 -2 1 -2 4 1
5 -7 -9 -9 -6 -4 -6 -1 -3 1 -0 -1 -0 -3 3 1 -1 7 23 -3 0 13 1 -2 5 -5 -2 2 -1 4 18 3 -2 10 -3 2 1 -3 -4 1 -1 2 3
2 2 -0 1 3 3 1 1 3 2 4 3 3 1 13 3 -1 -6 8 11 -5 1 6 5 4 -6 -4 -3 -7 11 8 2 3 6 -8 -2 1 1 1 -5 -1 -4 -1
-2 3 3 4 10 6 4 2 2 6 4 -3 10 -4 12 19 13 23 10 51 3 30 -3 -1 5 3 4 13 12 -7 11 2 -10 4 7 1 9 2 3 -4 1 2 2
11 2 -0 5 12 14 3 2 27 4 21 7 -1 -4 -11 6 -2 -10 -1 -0 2 -5 -2 0 -6 -8 2 -3 9 1 -3 0 1 -9 16 12 -2 -0 -8 6 4 -0 -2
30 8 23 3 2 -3 2 11 17 0 -0 -5 -16 -22 -19 -7 -10 -9 -15 -17 -12 -13 -8 -0 7 9 2 10 16 0 2 16 8 -3 -0 1 9 6 -2 0 3 2 -0
5 8 14 4 8 1 -2 1 5 3 -2 -7 -7 -2 -1 1 1 4 -0 -3 -3 -7 -2 -1 5 5 -3 -15 0 -5 -1 6 4 10 11 6 7 14 1 4 2 -3 2
5 3 2 -1 -0 -1 0 5 4 5 5 4 -4 -1 1 2 3 -7 -5 -8 -1 -1 0 -3 -1 1 -0 -1 1 2 -3 -12 1 -1 4 0 2 15 -3 -2 1 1 2
Height
3167 3169 3172 3173 3174 3176 3177 3178 3178 3179 3180 3180 3181 3182 3183 3184 3185 3185 3185 3185 3185 3184 3184 3183 3182 3180 3179 3178 3176 3175 3174 3173 3171 3171 3169 3167 3166 3163 3160 3158 3156 3153 3149
3163 3165 3167 3169 3170 3173 3174 3175 3177 3177 3178 3179 3179 3180 3181 3182 3182 3183 3184 3184 3184 3184 3183 3182 3180 3179 3177 3176 3175 3174 3173 3172 3170 3169 3168 3166 3165 3162 3159 3158 3156 3153 3150
3159 3161 3163 3165 3166 3168 3170 3172 3173 3175 3176 3176 3177 3178 3179 3179 3180 3181 3181 3182 3182 3182 3182 3181 3180 3178 3176 3175 3174 3172 3171 3170 3168 3167 3166 3165 3163 3161 3159 3157 3155 3153 3150
3153 3156 3158 3160 3161 3163 3165 3167 3169 3170 3172 3174 3175 3175 3176 3177 3178 3178 3179 3179 3180 3180 3180 3179 3178 3177 3175 3173 3173 3171 3170 3168 3166 3165 3164 3162 3161 3159 3158 3155 3154 3152 3150
3147 3149 3153 3155 3156 3158 3160 3162 3165 3167 3168 3169 3170 3171 3173 3173 3174 3175 3176 3177 3178 3178 3178 3177 3176 3175 3173 3172 3171 3169 3167 3165 3163 3162 3161 3159 3159 3157 3155 3153 3151 3151 3148
3140 3142 3146 3149 3150 3152 3154 3156 3159 3162 3164 3165 3166 3167 3168 3170 3171 3172 3173 3174 3174 3175 3175 3175 3174 3173 3171 3170 3168 3166 3165 3163 3161 3159 3158 3157 3156 3155 3153 3151 3149 3148 3147
3131 3135 3139 3141 3143 3146 3149 3151 3154 3156 3159 3160 3161 3162 3163 3164 3166 3168 3169 3171 3172 3172 3172 3172 3171 3170 3169 3167 3166 3164 3162 3160 3158 3156 3155 3154 3153 3151 3150 3149 3147 3145 3144
3122 3127 3130 3134 3137 3139 3141 3144 3146 3149 3152 3154 3157 3159 3159 3161 3161 3163 3165 3167 3168 3169 3169 3169 3168 3167 3166 3164 3163 3161 3160 3158 3156 3154 3153 3152 3150 3148 3147 3146 3144 3142 3141
3112 3118 3122 3126 3129 3131 3134 3138 3140 3144 3147 3149 3151 3153 3154 3153 3158 3158 3161 3162 3163 3164 3165 3165 3164 3164 3162 3161 3159 3158 3156 3154 3153 3150 3149 3149 3148 3146 3144 3143 3141 3140 3137
3102 3107 3112 3118 3122 3124 3126 3131 3134 3137 3139 3142 3145 3147 3147 3150 3152 3153 3155 3157 3158 3159 3160 3160 3160 3160 3158 3157 3156 3154 3153 3151 3149 3147 3145 3144 3145 3143 3141 3139 3138 3136 3135
3089 3096 3101 3107 3112 3116 3119 3123 3126 3127 3131 3135 3137 3140 3142 3143 3145 3148 3149 3152 3152 3154 3154 3154 3155 3154 3154 3153 3152 3151 3149 3148 3146 3143 3141 3141 3140 3140 3138 3136 3134 3132 3130
3075 3082 3089 3095 3101 3106 3110 3114 3118 3119 3122 3127 3128 3132 3133 3136 3140 3142 3143 3145 3146 3147 3147 3147 3148 3148 3148 3147 3147 3146 3145 3144 3142 3140 3138 3137 3136 3134 3133 3132 3129 3128 3127
3060 3069 3077 3083 3089 3096 3102 3107 3108 3112 3113 3116 3120 3124 3126 3129 3133 3134 3135 3136 3137 3139 3139 3140 3141 3142 3142 3142 3141 3141 3140 3139 3137 3135 3133 3131 3132 3130 3128 3126 3125 3123 3121
3049 3057 3064 3072 3079 3086 3092 3097 3102 3104 3105 3108 3113 3115 3118 3121 3123 3124 3128 3129 3129 3129 3131 3133 3135 3136 3136 3135 3135 3133 3132 3131 3130 3129 3128 3126 3125 3123 3122 3121 3119 3117 3115
3035 3044 3055 3063 3069 3076 3083 3088 3092 3095 3100 3104 3106 3108 3109 3113 3111 3112 3115 3119 3121 3121 3120 3126 3127 3128 3129 3127 3127 3126 3125 3124 3123 3123 3122 3120 3118 3116 3114 3114 3112 3110 3109
3025 3033 3043 3052 3060 3067 3073 3078 3083 3087 3089 3093 3099 3100 3102 3104 3104 3105 3107 3108 3111 3111 3111 3117 3120 3120 3120 3118 3119 3118 3116 3116 3115 3114 3115 3114 3112 3110 3107 3106 3106 3104 3103
3015 3023 3033 3041 3050 3057 3063 3068 3073 3078 3081 3085 3089 3091 3092 3095 3096 3095 3097 3099 3101 3103 3102 3108 3110 3110 3108 3108 3108 3107 3106 3106 3106 3105 3105 3104 3103 3102 3100 3098 3098 3097 3095
3008 3016 3024 3031 3039 3046 3053 3059 3064 3069 3073 3075 3079 3082 3083 3085 3085 3086 3086 3088 3092 3094 3094 3095 3097 3098 3097 3098 3098 3097 3097 3095 3094 3096 3094 3094 3093 3092 3091 3089 3088 3088 3087
3003 3011 3017 3022 3029 3037 3044 3050 3056 3060 3064 3067 3071 3072 3073 3075 3075 3076 3076 3076 3077 3077 3079 3080 3080 3083 3083 3085 3085 3084 3085 3085 3082 3083 3082 3083 3081 3081 3080 3080 3079 3079 3078
3000 3008 3013 3018 3025 3031 3037 3042 3047 3051 3054 3055 3058 3059 3063 3064 3064 3065 3063 3060 3064 3065 3066 3067 3067 3069 3071 3072 3071 3072 3070 3071 3071 3071 3070 3070 3069 3070 3069 3068 3068 3069 3069
2995 3001 3007 3012 3018 3023 3028 3033 3037 3040 3043 3046 3049 3050 3053 3052 3051 3051 3053 3055 3055 3055 3054 3055 3055 3054 3057 3058 3058 3060 3057 3057 3057 3057 3057 3056 3056 3057 3056 3055 3056 3058 3058
2991 2995 3002 3008 3013 3018 3023 3026 3030 3032 3037 3040 3040 3041 3042 3042 3040 3042 3044 3044 3043 3043 3042 3042 3044 3042 3044 3045 3045 3045 3044 3041 3040 3042 3041 3042 3041 3041 3042 3043 3045 3046 3047
2985 2993 2997 3003 3008 3013 3017 3020 3023 3027 3028 3031 3032 3034 3032 3032 3031 3033 3032 3032 3032 3032 3032 3032 3031 3032 3031 3032 3031 3029 3027 3027 3023 3025 3026 3025 3027 3027 3027 3031 3033 3035 3036
2988 2991 2995 3002 3007 3010 3013 3017 3019 3023 3025 3026 3027 3026 3025 3027 3025 3024 3024 3025 3024 3024 3023 3022 3020 3020 3018 3018 3014 3012 3011 3009 3009 3009 3007 3008 3008 3009 3012 3017 3021 3023 3025
2993 2996 2998 3002 3005 3008 3010 3012 3015 3016 3017 3018 3018 3018 3018 3018 3018 3017 3015 3014 3014 3012 3011 3010 3008 3005 3004 3001 2999 2996 2995 2993 2992 2991 2991 2989 2993 2994 2998 3004 3009 3011 3014
2998 3000 3002 3004 3007 3009 3011 3012 3012 3011 3012 3012 3013 3012 3012 3011 3009 3007 3006 3004 3002 3000 2998 2997 2997 2993 2992 2990 2987 2983 2982 2982 2983 2981 2983 2981 2984 2983 2986 2992 2996 3000 3002